[[{"header":{"parameterUnit":"m.s-1","parameterCategory":2,"la1":30.2991,"la2":30.254,"lo1":-89.0895,"lo2":-89.0444,"dy":0.0017,"dx":0.0017,"nx":28,"ny":28,"refTime":"2024-02-29T03:00:00:Z","depth":"0","parameterNumber":2,"parameterNumberName":"U-component_of_CURRENTS"},"data":[0,0,0,0,0,0,0,0,0,0,0,0,0,0,0,0,0,0,0,0,0,0,0,0,0,0,0,0,0,0,0,0,0,0,0,0,0,0,0,0,0,0,0,0,0,0,0,0,0,0,0,0,0,0,0,0,0,0,-0.2256,-0.2256,0,-0.2264,-0.2263,-0.2263,-0.2242,-0.2241,-0.2241,-0.2241,-0.2226,-0.2226,-0.2226,0,0,0,0,0,0,0,0,0,0,0,0,0,-0.2213,-0.2214,-0.2256,-0.2256,-0.2257,-0.2264,-0.2263,-0.2263,-0.2242,-0.2241,-0.2241,-0.224,-0.2226,-0.2226,-0.2226,0,0,0,0,0,0,0,0,0,0,0,0,0,-0.2225,-0.2214,-0.2256,-0.2249,-0.2249,-0.2264,-0.2263,-0.2263,-0.2242,-0.2241,-0.2241,-0.224,-0.2226,-0.2226,-0.2226,-0.2238,0,0,-0.2226,-0.2226,0,0,0,0,0,0,0,0,-0.2224,-0.2226,-0.225,-0.225,-0.2249,-0.2254,-0.2243,-0.2255,-0.2242,-0.2241,-0.2241,-0.224,-0.2235,-0.2234,-0.2234,-0.2237,-0.2236,-0.2226,-0.2226,-0.2226,-0.2226,0,0,0,0,0,0,0,-0.2223,-0.2226,-0.2256,-0.225,-0.225,-0.2242,-0.2243,-0.2245,-0.2239,-0.2241,-0.2241,-0.2246,-0.2235,-0.2234,-0.2233,-0.2236,-0.2226,-0.2226,-0.2226,-0.2226,-0.2251,-0.2251,0,0,0,0,0,0,-0.223,-0.2225,-0.2256,-0.2257,-0.2238,-0.2244,-0.2244,-0.225,-0.224,-0.2238,-0.2247,-0.2245,-0.2234,-0.2233,-0.2232,-0.2254,-0.2226,-0.2226,-0.2226,-0.225,-0.2251,-0.2252,0,0,0,0,0,0,-0.2229,-0.2232,-0.2256,-0.2243,-0.2246,-0.2246,-0.2252,-0.2251,-0.225,-0.2244,-0.2242,-0.2247,-0.2233,-0.2232,-0.2237,-0.2253,-0.2226,-0.2226,-0.2249,-0.225,-0.2251,-0.2293,0,0,0,0,0,0,-0.2227,-0.2232,-0.2233,-0.2244,-0.2247,-0.2272,-0.2253,-0.2252,-0.2256,-0.2253,-0.2244,-0.2242,-0.2233,-0.2237,-0.2237,-0.2253,-0.2226,-0.2248,-0.225,-0.2251,-0.2291,-0.2295,-0.2299,0,0,0,0,0,-0.2226,-0.2235,-0.2233,-0.2237,-0.225,-0.2273,-0.2274,-0.2269,-0.2256,-0.2263,-0.2253,-0.2242,-0.2245,-0.2238,-0.2237,-0.2253,-0.2248,-0.2249,-0.2251,-0.2289,-0.2294,-0.2299,0,0,0,0,0,0,-0.2213,-0.2234,-0.2232,-0.2245,-0.2261,-0.227,-0.2273,-0.2272,-0.227,-0.2262,-0.2251,-0.2249,-0.226,-0.2251,-0.2243,-0.2264,-0.2245,-0.2246,-0.2274,-0.2279,-0.2283,-0.2283,-0.2226,0,0,0,0,0,-0.2213,-0.2224,-0.2245,-0.2253,-0.2262,-0.2267,-0.2272,-0.2274,-0.2277,-0.2274,-0.2269,-0.2263,-0.2267,-0.2267,-0.2268,-0.228,-0.2269,-0.229,-0.2294,-0.2297,-0.2297,-0.2301,-0.2306,-0.2257,-0.2257,-0.2257,0,0,-0.2208,-0.2222,-0.2227,-0.2251,-0.2257,-0.2279,-0.2268,-0.2281,-0.2296,-0.2274,-0.2283,-0.2279,-0.2274,-0.2287,-0.2292,-0.2281,-0.2306,-0.2299,-0.2303,-0.23,-0.2303,-0.2308,-0.2312,-0.2258,-0.2258,-0.2257,0,0,-0.2211,-0.222,-0.2231,-0.2251,-0.2272,-0.2283,-0.229,-0.2304,-0.2306,-0.2321,-0.2309,-0.2313,-0.2316,-0.2319,-0.232,-0.2348,-0.2329,-0.2348,-0.2369,-0.2373,-0.2377,-0.2381,-0.2372,-0.2375,-0.2349,-0.2349,-0.2349,0,-0.2203,-0.2224,-0.2238,-0.226,-0.2278,-0.2287,-0.2309,-0.2321,-0.2334,-0.2341,-0.2328,-0.2339,-0.2333,-0.2354,-0.2361,-0.2358,-0.2351,-0.2351,-0.2379,-0.2382,-0.2385,-0.2375,-0.2377,-0.2351,-0.2351,-0.2351,-0.2351,0,-0.2217,-0.2238,-0.2249,-0.2281,-0.2303,-0.2324,-0.2351,-0.2366,-0.2368,-0.2378,-0.2395,-0.2388,-0.2392,-0.2396,-0.2385,-0.2407,-0.2392,-0.2385,-0.2366,-0.2392,-0.2381,-0.2382,-0.2355,-0.2354,-0.2353,-0.2353,0,0,-0.2184,-0.2247,-0.2248,-0.227,-0.2317,-0.2335,-0.2371,-0.2404,-0.2424,-0.2431,-0.2453,-0.2458,-0.2448,-0.2447,-0.2439,-0.2441,-0.2452,-0.2421,-0.242,-0.2412,-0.2452,-0.2431,-0.2431,-0.245,-0.2451,-0.2451,-0.2436,0,-0.2187,-0.223,-0.2265,-0.2306,-0.2331,-0.2368,-0.2401,-0.2433,-0.2456,-0.2481,-0.248,-0.2493,-0.247,-0.247,-0.2471,-0.2462,-0.2458,-0.2456,-0.2427,-0.2426,-0.2405,-0.2432,-0.2369,-0.2349,-0.2437,-0.2437,-0.2437,0,-0.2184,-0.2216,-0.2257,-0.2323,-0.2336,-0.2364,-0.2418,-0.2452,-0.2499,-0.2513,-0.2531,-0.2532,-0.2541,-0.2513,-0.2505,-0.2505,-0.2478,-0.2465,-0.2464,-0.243,-0.2409,-0.2337,-0.2348,-0.2329,-0.2439,-0.2439,-0.2439,0,-0.2143,-0.2209,-0.224,-0.2263,-0.2337,-0.2359,-0.2395,-0.2452,-0.2487,-0.2531,-0.2557,-0.2566,-0.2571,-0.2549,-0.2522,-0.2513,-0.251,-0.2493,-0.2448,-0.2445,-0.2378,-0.2369,-0.2365,-0.248,-0.248,-0.248,-0.248,0,-0.2133,-0.2154,-0.2221,-0.2237,-0.2272,-0.2333,-0.2376,-0.2417,-0.2485,-0.2525,-0.2561,-0.2586,-0.258,-0.2581,-0.2541,-0.2504,-0.2522,-0.2455,-0.2445,-0.239,-0.2383,-0.2352,-0.2354,-0.2479,-0.2479,-0.2479,-0.248,0,-0.2079,-0.2129,-0.2163,-0.2233,-0.2254,-0.2273,-0.2358,-0.2396,-0.2465,-0.2521,-0.2535,-0.2602,-0.2602,-0.2592,-0.2564,-0.2529,-0.2452,-0.2469,-0.2402,-0.2385,-0.232,-0.2327,-0.228,-0.2215,-0.2416,-0.2415,-0.2415,0,-0.2054,-0.2065,-0.2134,-0.2155,-0.2184,-0.2229,-0.2268,-0.236,-0.2411,-0.2521,-0.2546,-0.2586,-0.2603,-0.2578,-0.252,-0.2461,-0.2421,-0.2368,-0.2339,-0.2314,-0.2315,-0.2292,-0.2239,-0.2261,-0.226,-0.2258,-0.2257,0,-0.1993,-0.2014,-0.2043,-0.2081,-0.2121,-0.2165,-0.2231,-0.2272,-0.2384,-0.2449,-0.2523,-0.2551,-0.2561,-0.2499,-0.2445,-0.2387,-0.2315,-0.2338,-0.2329,-0.2211,-0.2169,-0.2102,-0.2272,-0.2245,-0.2246,-0.2247,-0.2248,-0.2248,-0.193,-0.1931,-0.1964,-0.199,-0.2036,-0.2066,-0.2072,-0.2171,-0.2233,-0.2317,-0.2421,-0.2466,-0.2461,-0.2384,-0.2339,-0.2237,-0.2225,-0.216,-0.2174,-0.2157,-0.2085,-0.2229,-0.2186,-0.2187,-0.2187,-0.2188,-0.2189,0,-0.1839,-0.1849,-0.1871,-0.1896,-0.1896,-0.1952,-0.2017,-0.2014,-0.2054,-0.2191,-0.2254,-0.2337,-0.2278,-0.2274,-0.2198,-0.2107,-0.2028,-0.2037,-0.1988,-0.1942,-0.2081,-0.2065,-0.1974,-0.1974,-0.1974,-0.1974,-0.1974,-0.1974,-0.1793,-0.1769,-0.1778,-0.1731,-0.175,-0.171,-0.1717,-0.1743,-0.1814,-0.191,-0.2033,-0.2172,-0.2182,-0.2276,-0.2157,-0.2049,-0.1961,-0.1891,-0.1881,-0.1996,-0.2008,-0.202,-0.2006,-0.1903,-0.1903,-0.1675,-0.1674,-0.1673]},{"header":{"parameterUnit":"m.s-1","parameterCategory":2,"la1":30.2991,"la2":30.254,"lo1":-89.0895,"lo2":-89.0444,"dy":0.0017,"dx":0.0017,"nx":28,"ny":28,"refTime":"2024-02-29T03:00:00:Z","depth":"0","parameterNumber":3,"parameterNumberName":"V-component_of_CURRENTS"},"data":[0,0,0,0,0,0,0,0,0,0,0,0,0,0,0,0,0,0,0,0,0,0,0,0,0,0,0,0,0,0,0,0,0,0,0,0,0,0,0,0,0,0,0,0,0,0,0,0,0,0,0,0,0,0,0,0,0,0,-0.0354,-0.0353,0,-0.0279,-0.0278,-0.0277,-0.0226,-0.0225,-0.0225,-0.0225,-0.0133,-0.013,-0.0128,0,0,0,0,0,0,0,0,0,0,0,0,0,-0.0419,-0.0419,-0.0354,-0.0353,-0.0352,-0.0279,-0.0278,-0.0277,-0.0226,-0.0225,-0.0225,-0.0225,-0.0133,-0.0131,-0.0128,0,0,0,0,0,0,0,0,0,0,0,0,0,-0.0372,-0.0418,-0.0354,-0.0318,-0.0315,-0.0279,-0.0278,-0.0277,-0.0226,-0.0225,-0.0225,-0.0224,-0.0134,-0.0131,-0.0128,-0.0118,0,0,-0.0118,-0.0117,0,0,0,0,0,0,0,0,-0.0375,-0.037,-0.0325,-0.0321,-0.0316,-0.0262,-0.0267,-0.0223,-0.0226,-0.0259,-0.0225,-0.0224,-0.0175,-0.0168,-0.0155,-0.0113,-0.0109,-0.0118,-0.0116,-0.0114,-0.0113,0,0,0,0,0,0,0,-0.0378,-0.0372,-0.0324,-0.0324,-0.0319,-0.0295,-0.0288,-0.0258,-0.022,-0.0256,-0.0252,-0.0245,-0.0172,-0.0158,-0.0152,-0.0108,-0.0118,-0.0115,-0.0113,-0.0112,-0.0043,-0.0043,0,0,0,0,0,0,-0.0391,-0.0376,-0.0326,-0.0322,-0.0346,-0.0294,-0.0286,-0.0279,-0.022,-0.0211,-0.0245,-0.0243,-0.0164,-0.0156,-0.0149,-0.0125,-0.0114,-0.0111,-0.0109,-0.0043,-0.0043,-0.0043,0,0,0,0,0,0,-0.0393,-0.0387,-0.0329,-0.0347,-0.0338,-0.0294,-0.0286,-0.0278,-0.0262,-0.0213,-0.0203,-0.0238,-0.0163,-0.0153,-0.0122,-0.0121,-0.011,-0.0107,-0.0043,-0.0043,-0.0043,-0.0082,0,0,0,0,0,0,-0.0395,-0.0388,-0.0391,-0.0348,-0.0338,-0.0313,-0.0287,-0.0277,-0.0259,-0.0255,-0.0203,-0.0194,-0.0162,-0.0127,-0.0119,-0.0116,-0.0104,-0.0043,-0.0043,-0.0043,-0.0081,-0.0084,-0.0086,0,0,0,0,0,-0.0397,-0.0403,-0.0391,-0.0385,-0.0341,-0.0313,-0.0306,-0.0272,-0.0259,-0.0256,-0.0219,-0.0196,-0.0123,-0.0125,-0.0115,-0.0111,-0.0043,-0.0043,-0.0043,-0.008,-0.0083,-0.0086,0,0,0,0,0,0,-0.043,-0.0397,-0.0383,-0.0378,-0.035,-0.0305,-0.03,-0.0277,-0.0245,-0.0242,-0.0195,-0.0184,-0.0157,-0.0131,-0.0134,-0.0093,-0.008,-0.0078,-0.0111,-0.0114,-0.0116,-0.0126,-0.0102,0,0,0,0,0,-0.0441,-0.0437,-0.0399,-0.0395,-0.0384,-0.0344,-0.033,-0.0307,-0.0272,-0.0258,-0.0221,-0.0184,-0.0151,-0.0131,-0.01,-0.0077,-0.0045,-0.0069,-0.0072,-0.0074,-0.0076,-0.0027,-0.0026,-0.0044,-0.0044,-0.0044,0,0,-0.0452,-0.0434,-0.0432,-0.0402,-0.0379,-0.0368,-0.0334,-0.0316,-0.0303,-0.0253,-0.0228,-0.0193,-0.0148,-0.0121,-0.0107,-0.0098,-0.0053,-0.0075,-0.0077,-0.0077,-0.0028,-0.0026,-0.0024,-0.0044,-0.0044,-0.0044,0,0,-0.0477,-0.0459,-0.0465,-0.0446,-0.0417,-0.039,-0.0388,-0.0346,-0.0323,-0.0297,-0.0257,-0.0221,-0.0175,-0.0136,-0.0112,-0.0112,-0.0072,-0.0106,-0.0122,-0.0075,-0.0073,-0.0071,-0.0031,-0.0025,-0.0104,-0.0104,-0.0104,0,-0.0494,-0.0495,-0.0462,-0.0462,-0.0451,-0.0404,-0.0407,-0.0376,-0.0328,-0.0308,-0.0297,-0.0217,-0.018,-0.0134,-0.0134,-0.0117,-0.0088,-0.0113,-0.0078,-0.0075,-0.0072,-0.0032,-0.0025,-0.0106,-0.0106,-0.0106,-0.0105,0,-0.0521,-0.0522,-0.0524,-0.0509,-0.049,-0.0486,-0.0441,-0.0419,-0.0389,-0.0353,-0.0306,-0.025,-0.0201,-0.0184,-0.0158,-0.0119,-0.0105,-0.009,-0.0071,-0.0073,-0.003,-0.0022,-0.0109,-0.0108,-0.0108,-0.0107,0,0,-0.056,-0.0549,-0.0549,-0.0554,-0.0517,-0.0506,-0.0482,-0.0445,-0.0429,-0.0375,-0.0344,-0.0281,-0.0245,-0.0216,-0.0172,-0.013,-0.0084,-0.0107,-0.0103,-0.0069,0.0015,0.0053,0.0066,-0.0064,-0.0063,-0.0062,0.0036,0,-0.0593,-0.0617,-0.0591,-0.0603,-0.0611,-0.056,-0.0542,-0.0499,-0.0454,-0.0411,-0.0336,-0.0295,-0.0257,-0.0235,-0.0184,-0.0108,-0.0064,-0.0112,0.0014,0.0018,0.005,0.0076,0.0106,0.0198,0.0045,0.0046,0.0047,0,-0.0627,-0.0641,-0.0667,-0.0658,-0.0655,-0.0649,-0.0612,-0.0588,-0.051,-0.0474,-0.0408,-0.0345,-0.0264,-0.0241,-0.0105,-0.0138,-0.0069,-0.0011,-0.0005,0.005,0.0071,0.0177,0.0219,0.0342,0.006,0.0059,0.0058,0,-0.0681,-0.0689,-0.0717,-0.0714,-0.0695,-0.0691,-0.0674,-0.0611,-0.0591,-0.0511,-0.0482,-0.0375,-0.0317,-0.0216,-0.0083,-0.0096,0.0066,0.0066,0.0166,0.0169,0.023,0.0236,0.0406,0.0155,0.0154,0.0154,0.0154,0,-0.0729,-0.0747,-0.0749,-0.0764,-0.0792,-0.0749,-0.0755,-0.0717,-0.0657,-0.0632,-0.0522,-0.0473,-0.031,-0.019,-0.0085,0.0078,0.0071,0.0172,0.0203,0.0217,0.0221,0.0358,0.0407,0.0158,0.0157,0.0156,0.0156,0,-0.078,-0.0781,-0.0816,-0.0818,-0.0821,-0.084,-0.0824,-0.0822,-0.0753,-0.0713,-0.0688,-0.0535,-0.0371,-0.0198,-0.0016,0.008,0.0309,0.0278,0.0283,0.0312,0.0504,0.0548,0.0752,0.0814,0.0399,0.0401,0.0402,0,-0.0808,-0.0834,-0.0869,-0.0902,-0.0908,-0.0929,-0.0942,-0.0886,-0.0873,-0.0753,-0.0734,-0.0557,-0.0423,-0.0123,0.009,0.0308,0.0395,0.0444,0.0425,0.0535,0.0606,0.0639,0.0678,0.049,0.0492,0.0493,0.0495,0,-0.0864,-0.0876,-0.0911,-0.0985,-0.1018,-0.1048,-0.1053,-0.1056,-0.0974,-0.0914,-0.0799,-0.0677,-0.0351,-0.0061,0.0241,0.0357,0.0544,0.0482,0.0606,0.0705,0.0744,0.0811,0.0397,0.0509,0.0508,0.0507,0.0506,0.0505,-0.0902,-0.0949,-0.1001,-0.1066,-0.1111,-0.1152,-0.1179,-0.1154,-0.1122,-0.1012,-0.087,-0.0656,-0.0196,0.0248,0.0395,0.0719,0.0676,0.0793,0.084,0.0866,0.0924,0.0537,0.0674,0.0674,0.0673,0.0673,0.0673,0,-0.095,-0.1005,-0.1078,-0.1153,-0.1216,-0.1213,-0.1239,-0.1245,-0.1211,-0.1058,-0.0913,-0.0402,0.0037,0.044,0.0934,0.1084,0.1098,0.1142,0.12,0.1223,0.0899,0.0901,0.1081,0.1081,0.1081,0.1081,0.1081,0.108,-0.0979,-0.1063,-0.1104,-0.1222,-0.1274,-0.1338,-0.1356,-0.1337,-0.1246,-0.1004,-0.0716,-0.0482,0.0179,0.1022,0.145,0.145,0.1567,0.1544,0.1607,0.1386,0.1356,0.1328,0.1343,0.1613,0.1614,0.1913,0.1916,0.1918]}],[{"header":{"parameterUnit":"m.s-1","parameterCategory":2,"la1":30.2991,"la2":30.254,"lo1":-89.0895,"lo2":-89.0444,"dy":0.0017,"dx":0.0017,"nx":28,"ny":28,"refTime":"2024-02-29T03:00:00:Z","depth":"2","parameterNumber":2,"parameterNumberName":"U-component_of_CURRENTS"},"data":[0,0,0,0,0,0,0,0,0,0,0,0,0,0,0,0,0,0,0,0,0,0,0,0,0,0,0,0,0,0,0,0,0,0,0,0,0,0,0,0,0,0,0,0,0,0,0,0,0,0,0,0,0,0,0,0,0,0,-0.2103,-0.2104,0,-0.2112,-0.2112,-0.2112,-0.2095,-0.2095,-0.2095,-0.2094,-0.2084,-0.2084,-0.2084,0,0,0,0,0,0,0,0,0,0,0,0,0,-0.2062,-0.2063,-0.2103,-0.2104,-0.2104,-0.2112,-0.2112,-0.2112,-0.2095,-0.2095,-0.2095,-0.2094,-0.2084,-0.2084,-0.2084,0,0,0,0,0,0,0,0,0,0,0,0,0,-0.2074,-0.2063,-0.2103,-0.2099,-0.2099,-0.2112,-0.2112,-0.2112,-0.2095,-0.2095,-0.2095,-0.2094,-0.2084,-0.2084,-0.2084,-0.2092,0,0,-0.2083,-0.2083,0,0,0,0,0,0,0,0,-0.2073,-0.2075,-0.2099,-0.2099,-0.2099,-0.2105,-0.2094,-0.2105,-0.2096,-0.2094,-0.2094,-0.2094,-0.2091,-0.209,-0.2089,-0.2092,-0.2091,-0.2083,-0.2083,-0.2083,-0.2083,0,0,0,0,0,0,0,-0.2072,-0.2074,-0.2104,-0.21,-0.21,-0.2093,-0.2094,-0.2095,-0.2092,-0.2094,-0.2093,-0.2099,-0.209,-0.2089,-0.2089,-0.2091,-0.2083,-0.2083,-0.2083,-0.2083,-0.2109,-0.2109,0,0,0,0,0,0,-0.2078,-0.2074,-0.2104,-0.2105,-0.2088,-0.2095,-0.2095,-0.2101,-0.2093,-0.2092,-0.2099,-0.2098,-0.209,-0.2089,-0.2088,-0.2113,-0.2083,-0.2083,-0.2083,-0.2108,-0.2109,-0.211,0,0,0,0,0,0,-0.2077,-0.2081,-0.2103,-0.2091,-0.2094,-0.2096,-0.2102,-0.2102,-0.2104,-0.2098,-0.2096,-0.2103,-0.2089,-0.2088,-0.2094,-0.2112,-0.2083,-0.2083,-0.2107,-0.2108,-0.2109,-0.2154,0,0,0,0,0,0,-0.2076,-0.208,-0.2083,-0.2092,-0.2095,-0.212,-0.2103,-0.2102,-0.2109,-0.2107,-0.21,-0.2098,-0.2089,-0.2095,-0.2094,-0.2112,-0.2083,-0.2106,-0.2108,-0.2109,-0.2151,-0.2156,-0.216,0,0,0,0,0,-0.2074,-0.2084,-0.2083,-0.2086,-0.21,-0.2121,-0.2122,-0.212,-0.211,-0.2118,-0.2109,-0.2099,-0.2103,-0.2095,-0.2095,-0.2112,-0.2106,-0.2107,-0.2109,-0.2149,-0.2155,-0.216,0,0,0,0,0,0,-0.2064,-0.2083,-0.2082,-0.2096,-0.2111,-0.212,-0.2124,-0.2125,-0.2124,-0.2119,-0.2107,-0.2106,-0.2119,-0.2109,-0.2101,-0.2123,-0.2103,-0.2104,-0.2134,-0.2139,-0.2143,-0.2144,-0.2083,0,0,0,0,0,-0.2065,-0.2076,-0.2095,-0.2104,-0.2113,-0.2119,-0.2125,-0.2128,-0.2131,-0.213,-0.2126,-0.2121,-0.2125,-0.2126,-0.2126,-0.2138,-0.2128,-0.2149,-0.2154,-0.2157,-0.2158,-0.2161,-0.2166,-0.2115,-0.2115,-0.2115,0,0,-0.2062,-0.2074,-0.2079,-0.2103,-0.2109,-0.213,-0.2121,-0.2136,-0.2152,-0.213,-0.2142,-0.2138,-0.2132,-0.2146,-0.2151,-0.214,-0.2167,-0.2159,-0.2163,-0.2161,-0.2163,-0.2168,-0.2172,-0.2116,-0.2115,-0.2115,0,0,-0.2066,-0.2075,-0.2087,-0.2106,-0.2127,-0.2137,-0.2146,-0.2161,-0.2164,-0.218,-0.2168,-0.2174,-0.2178,-0.2179,-0.218,-0.2209,-0.2191,-0.221,-0.2232,-0.2236,-0.224,-0.2244,-0.2238,-0.224,-0.2211,-0.2211,-0.2211,0,-0.206,-0.208,-0.2094,-0.2116,-0.2133,-0.2144,-0.2166,-0.2177,-0.2192,-0.22,-0.2189,-0.22,-0.2195,-0.2215,-0.2223,-0.222,-0.2213,-0.2214,-0.2242,-0.2245,-0.2248,-0.2241,-0.2243,-0.2213,-0.2213,-0.2213,-0.2213,0,-0.2075,-0.2096,-0.2107,-0.2138,-0.216,-0.2181,-0.2207,-0.2224,-0.2228,-0.2238,-0.2258,-0.225,-0.2255,-0.2259,-0.2249,-0.2271,-0.2257,-0.2249,-0.2229,-0.2256,-0.2246,-0.2248,-0.2217,-0.2216,-0.2215,-0.2215,0,0,-0.2047,-0.2105,-0.2107,-0.2128,-0.2175,-0.2192,-0.2228,-0.2262,-0.2282,-0.2291,-0.2314,-0.232,-0.2312,-0.2311,-0.2303,-0.2306,-0.232,-0.2286,-0.2285,-0.228,-0.2322,-0.2298,-0.2297,-0.2317,-0.2318,-0.2318,-0.2307,0,-0.2051,-0.2092,-0.2125,-0.2166,-0.219,-0.2226,-0.2258,-0.2291,-0.2314,-0.2339,-0.2341,-0.2354,-0.2334,-0.2335,-0.2338,-0.2328,-0.2326,-0.2323,-0.2295,-0.2294,-0.227,-0.2299,-0.2113,-0.2086,-0.2308,-0.2309,-0.2309,0,-0.2049,-0.2079,-0.212,-0.2182,-0.2195,-0.2223,-0.2276,-0.231,-0.2356,-0.2372,-0.2391,-0.2393,-0.2404,-0.2378,-0.2373,-0.2372,-0.2348,-0.2335,-0.2334,-0.2296,-0.2274,-0.2095,-0.208,-0.2311,-0.2311,-0.2311,-0.2311,0,-0.2011,-0.2075,-0.2105,-0.2127,-0.2198,-0.222,-0.2256,-0.2312,-0.2345,-0.2391,-0.2416,-0.2428,-0.2435,-0.2416,-0.2392,-0.2382,-0.2382,-0.2365,-0.2318,-0.2316,-0.2143,-0.2125,-0.2353,-0.2353,-0.2353,-0.2353,-0.2354,0,-0.2002,-0.2023,-0.2088,-0.2104,-0.2138,-0.2197,-0.2239,-0.228,-0.2346,-0.2383,-0.2422,-0.2446,-0.2445,-0.2447,-0.2411,-0.2374,-0.2395,-0.2326,-0.2315,-0.2154,-0.2138,-0.2321,-0.2317,-0.2353,-0.2353,-0.2353,-0.2353,0,-0.1952,-0.2,-0.2033,-0.2101,-0.2121,-0.2141,-0.2223,-0.2258,-0.2327,-0.238,-0.2395,-0.2462,-0.2464,-0.2458,-0.2434,-0.2399,-0.2364,-0.2341,-0.2153,-0.2121,-0.2288,-0.2287,-0.2288,-0.2287,-0.2287,-0.2286,-0.2286,0,-0.1929,-0.194,-0.2006,-0.2026,-0.2055,-0.21,-0.2137,-0.2225,-0.2272,-0.2378,-0.24,-0.2442,-0.2454,-0.2434,-0.2365,-0.2306,-0.2344,-0.211,-0.2063,-0.2294,-0.2283,-0.2283,-0.2283,-0.1844,-0.184,-0.1837,-0.1834,0,-0.1871,-0.1893,-0.192,-0.1956,-0.1994,-0.2034,-0.2096,-0.2132,-0.2238,-0.2297,-0.2363,-0.2388,-0.2388,-0.2257,-0.2202,-0.2135,-0.2109,-0.2044,-0.232,-0.1908,-0.1879,-0.1868,-0.1881,-0.1804,-0.1807,-0.181,-0.1811,-0.1812,-0.1812,-0.1812,-0.1843,-0.1867,-0.191,-0.1933,-0.1935,-0.202,-0.207,-0.2119,-0.2229,-0.2203,-0.2187,-0.2018,-0.1923,-0.1834,-0.1969,-0.1857,-0.1864,-0.1876,-0.1845,-0.1819,-0.1726,-0.1728,-0.173,-0.1732,-0.1734,0,-0.1722,-0.1732,-0.1753,-0.1773,-0.1767,-0.1824,-0.1878,-0.1849,-0.1867,-0.1942,-0.1977,-0.1789,-0.1729,-0.1707,-0.1537,-0.152,-0.1475,-0.1444,-0.1369,-0.14,-0.1427,-0.1371,-0.1127,-0.1125,-0.1124,-0.1122,0,0,-0.1678,-0.1651,-0.1658,-0.1605,-0.1622,-0.1571,-0.1571,-0.1551,-0.1566,-0.1519,-0.1511,-0.1652,-0.1683,-0.1409,-0.1342,-0.121,-0.129,-0.1151,-0.1637,-0.158,-0.1605,-0.1664,-0.1614,0,0,0,0,0]},{"header":{"parameterUnit":"m.s-1","parameterCategory":2,"la1":30.2991,"la2":30.254,"lo1":-89.0895,"lo2":-89.0444,"dy":0.0017,"dx":0.0017,"nx":28,"ny":28,"refTime":"2024-02-29T03:00:00:Z","depth":"2","parameterNumber":3,"parameterNumberName":"V-component_of_CURRENTS"},"data":[0,0,0,0,0,0,0,0,0,0,0,0,0,0,0,0,0,0,0,0,0,0,0,0,0,0,0,0,0,0,0,0,0,0,0,0,0,0,0,0,0,0,0,0,0,0,0,0,0,0,0,0,0,0,0,0,0,0,-0.0269,-0.0269,0,-0.0195,-0.0194,-0.0193,-0.0144,-0.0144,-0.0143,-0.0143,-0.0053,-0.0051,-0.0049,0,0,0,0,0,0,0,0,0,0,0,0,0,-0.0334,-0.0333,-0.0269,-0.0269,-0.0268,-0.0195,-0.0194,-0.0193,-0.0144,-0.0144,-0.0143,-0.0143,-0.0053,-0.0051,-0.0048,0,0,0,0,0,0,0,0,0,0,0,0,0,-0.0287,-0.0333,-0.027,-0.0235,-0.0231,-0.0195,-0.0194,-0.0192,-0.0144,-0.0144,-0.0143,-0.0143,-0.0054,-0.0051,-0.0048,-0.0035,0,0,-0.0038,-0.0037,0,0,0,0,0,0,0,0,-0.029,-0.0284,-0.0241,-0.0237,-0.0233,-0.0179,-0.0183,-0.0139,-0.0144,-0.0176,-0.0143,-0.0143,-0.0094,-0.0088,-0.0074,-0.0031,-0.0027,-0.0038,-0.0036,-0.0034,-0.0033,0,0,0,0,0,0,0,-0.0293,-0.0287,-0.0239,-0.024,-0.0235,-0.0211,-0.0204,-0.0175,-0.0138,-0.0173,-0.017,-0.0163,-0.0092,-0.0077,-0.0071,-0.0026,-0.0038,-0.0035,-0.0033,-0.0032,0.0038,0.0038,0,0,0,0,0,0,-0.0306,-0.029,-0.0241,-0.0237,-0.0262,-0.021,-0.0203,-0.0196,-0.0138,-0.0129,-0.0163,-0.0161,-0.0083,-0.0075,-0.0068,-0.0046,-0.0034,-0.0031,-0.0029,0.0038,0.0038,0.0038,0,0,0,0,0,0,-0.0308,-0.0302,-0.0244,-0.0262,-0.0254,-0.021,-0.0203,-0.0195,-0.018,-0.0131,-0.0121,-0.0157,-0.0082,-0.0072,-0.0042,-0.0042,-0.003,-0.0027,0.0038,0.0038,0.0038,-0.0004,0,0,0,0,0,0,-0.031,-0.0303,-0.0306,-0.0263,-0.0253,-0.0228,-0.0203,-0.0194,-0.0177,-0.0173,-0.0122,-0.0113,-0.0081,-0.0047,-0.0038,-0.0037,-0.0024,0.0038,0.0038,0.0038,-0.0002,-0.0005,-0.0008,0,0,0,0,0,-0.0312,-0.0318,-0.0307,-0.0301,-0.0257,-0.0229,-0.0221,-0.0188,-0.0177,-0.0173,-0.0138,-0.0115,-0.0042,-0.0044,-0.0034,-0.0032,0.0038,0.0038,0.0038,-0.0001,-0.0005,-0.0008,0,0,0,0,0,0,-0.0346,-0.0313,-0.0299,-0.0294,-0.0266,-0.0221,-0.0216,-0.0194,-0.0163,-0.0161,-0.0114,-0.0102,-0.0077,-0.005,-0.0054,-0.0013,0.0001,0.0002,-0.0032,-0.0035,-0.0038,-0.0049,-0.0022,0,0,0,0,0,-0.0356,-0.0353,-0.0314,-0.0311,-0.03,-0.026,-0.0246,-0.0224,-0.019,-0.0176,-0.0139,-0.0103,-0.007,-0.005,-0.002,0.0004,0.0034,0.001,0.0008,0.0005,0.0003,0.0049,0.005,0.0037,0.0037,0.0037,0,0,-0.0368,-0.035,-0.0348,-0.0318,-0.0295,-0.0285,-0.0251,-0.0234,-0.0221,-0.0171,-0.0147,-0.0113,-0.0067,-0.004,-0.0027,-0.0017,0.0024,0.0005,0.0002,0.0001,0.0049,0.005,0.0051,0.0037,0.0037,0.0037,0,0,-0.0394,-0.0376,-0.0382,-0.0363,-0.0334,-0.0307,-0.0306,-0.0264,-0.0242,-0.0216,-0.0176,-0.0141,-0.0095,-0.0057,-0.0033,-0.0033,0.0005,-0.0028,-0.0045,-0.0001,0.0,0.0002,0.0039,0.0044,-0.0026,-0.0026,-0.0026,0,-0.0412,-0.0413,-0.0379,-0.0379,-0.0368,-0.0322,-0.0325,-0.0294,-0.0247,-0.0229,-0.0217,-0.0138,-0.0101,-0.0057,-0.0057,-0.0039,-0.0012,-0.0036,-0.0005,-0.0002,0.0,0.0038,0.0044,-0.0028,-0.0028,-0.0028,-0.0028,0,-0.0439,-0.044,-0.0442,-0.0427,-0.0408,-0.0405,-0.036,-0.0339,-0.031,-0.0274,-0.0229,-0.0173,-0.0126,-0.0109,-0.0082,-0.0046,-0.0032,-0.0017,0.0003,-0.0001,0.0039,0.0046,-0.0031,-0.003,-0.003,-0.0029,0,0,-0.0479,-0.0467,-0.0467,-0.0472,-0.0436,-0.0425,-0.0403,-0.0367,-0.0353,-0.0299,-0.0271,-0.0208,-0.0173,-0.0144,-0.01,-0.006,-0.0019,-0.0037,-0.0033,-0.0003,0.0074,0.0107,0.0119,0.0001,0.0002,0.0003,0.0094,0,-0.0513,-0.0535,-0.0509,-0.0522,-0.0531,-0.048,-0.0464,-0.0422,-0.0379,-0.0339,-0.0266,-0.0226,-0.0186,-0.0165,-0.0117,-0.0042,-0.0001,-0.0045,0.0075,0.0079,0.0108,0.0129,0.0097,0.0177,0.0101,0.0102,0.0103,0,-0.0547,-0.056,-0.0586,-0.0578,-0.0575,-0.057,-0.0536,-0.0513,-0.0439,-0.0405,-0.0342,-0.0281,-0.0202,-0.0177,-0.0046,-0.0077,-0.001,0.0047,0.0053,0.0104,0.0127,0.017,0.0193,0.0116,0.0115,0.0114,0.0113,0,-0.0601,-0.0609,-0.0636,-0.0634,-0.0616,-0.0613,-0.0597,-0.0538,-0.0519,-0.0444,-0.0418,-0.0315,-0.026,-0.0161,-0.0029,-0.004,0.0114,0.0116,0.021,0.0213,0.0221,0.0223,0.02,0.02,0.02,0.02,0.0199,0,-0.0649,-0.0668,-0.0669,-0.0684,-0.0713,-0.0671,-0.068,-0.0644,-0.0588,-0.0566,-0.0459,-0.0414,-0.0255,-0.014,-0.0035,0.0122,0.0116,0.0214,0.0244,0.0205,0.0205,0.0178,0.0174,0.0203,0.0202,0.0202,0.0201,0,-0.07,-0.07,-0.0735,-0.0738,-0.0742,-0.0762,-0.0749,-0.0749,-0.0684,-0.0649,-0.0625,-0.048,-0.0323,-0.0154,0.0024,0.0118,0.0258,0.031,0.0255,0.0276,0.0324,0.0317,0.0419,0.0421,0.0423,0.0424,0.0425,0,-0.0727,-0.0753,-0.0788,-0.0821,-0.0828,-0.085,-0.0865,-0.0811,-0.0801,-0.0689,-0.0673,-0.0506,-0.0381,-0.0092,0.0109,0.032,0.0314,0.0399,0.0376,0.0331,0.0349,0.0339,0.033,0.0367,0.0367,0.0368,0.0368,0,-0.0783,-0.0796,-0.083,-0.0903,-0.0937,-0.0968,-0.0975,-0.098,-0.0903,-0.085,-0.0746,-0.0632,-0.0328,-0.0081,0.0209,0.0315,0.0366,0.0417,0.04,0.0316,0.029,0.0305,0.0296,0.0373,0.0373,0.0372,0.0372,0.0372,-0.0821,-0.0867,-0.0918,-0.0983,-0.1029,-0.107,-0.1098,-0.1077,-0.105,-0.0949,-0.0822,-0.0628,-0.0354,0.0055,0.0263,0.0447,0.0435,0.0468,0.0463,0.0458,0.0436,0.0414,0.0516,0.0517,0.0517,0.0517,0.0517,0,-0.0868,-0.0922,-0.0995,-0.1069,-0.113,-0.1131,-0.1159,-0.1157,-0.1129,-0.0993,-0.0865,-0.0563,-0.0254,0.0027,0.0332,0.0514,0.0484,0.0529,0.0461,0.0456,0.0451,0.0425,0.0505,0.0505,0.0506,0.0506,0,0,-0.0896,-0.0977,-0.1018,-0.1134,-0.1187,-0.1249,-0.1267,-0.1235,-0.1148,-0.1019,-0.0858,-0.0624,-0.0256,-0.0042,0.0202,0.0365,0.0349,0.0365,0.0354,0.0238,0.0231,0.0395,0.0347,0,0,0,0,0]}],[{"header":{"parameterUnit":"m.s-1","parameterCategory":2,"la1":30.2991,"la2":30.254,"lo1":-89.0895,"lo2":-89.0444,"dy":0.0017,"dx":0.0017,"nx":28,"ny":28,"refTime":"2024-02-29T03:00:00:Z","depth":"4","parameterNumber":2,"parameterNumberName":"U-component_of_CURRENTS"},"data":[0,0,0,0,0,0,0,0,0,0,0,0,0,0,0,0,0,0,0,0,0,0,0,0,0,0,0,0,0,0,0,0,0,0,0,0,0,0,0,0,0,0,0,0,0,0,0,0,0,0,0,0,0,0,0,0,0,0,-0.1434,-0.1435,0,-0.1481,-0.1482,-0.1482,-0.1515,-0.1515,-0.1516,-0.1516,-0.1564,-0.1564,-0.1565,0,0,0,0,0,0,0,0,0,0,0,0,0,-0.1363,-0.1364,-0.1434,-0.1435,-0.1435,-0.1481,-0.1482,-0.1482,-0.1515,-0.1515,-0.1516,-0.1516,-0.1563,-0.1564,-0.1565,0,0,0,0,0,0,0,0,0,0,0,0,0,-0.1399,-0.1365,-0.1434,-0.1459,-0.1462,-0.1481,-0.1482,-0.1482,-0.1515,-0.1515,-0.1516,-0.1517,-0.1563,-0.1564,-0.1565,-0.156,0,0,-0.1569,-0.157,0,0,0,0,0,0,0,0,-0.1397,-0.1401,-0.1454,-0.1457,-0.146,-0.1495,-0.1474,-0.1509,-0.1515,-0.1492,-0.1516,-0.1517,-0.1541,-0.1544,-0.1549,-0.1562,-0.1564,-0.1569,-0.157,-0.1571,-0.1571,0,0,0,0,0,0,0,-0.1394,-0.1399,-0.145,-0.1455,-0.1459,-0.1465,-0.1471,-0.1481,-0.1511,-0.1494,-0.1497,-0.1506,-0.1543,-0.1548,-0.155,-0.1565,-0.1569,-0.1571,-0.1571,-0.1572,-0.1642,-0.1643,0,0,0,0,0,0,-0.1392,-0.1397,-0.1449,-0.1452,-0.1432,-0.1466,-0.1472,-0.1481,-0.1511,-0.1517,-0.1505,-0.1507,-0.1545,-0.1549,-0.1552,-0.1616,-0.1571,-0.1572,-0.1573,-0.1641,-0.1642,-0.1643,0,0,0,0,0,0,-0.1391,-0.1397,-0.1447,-0.1427,-0.1434,-0.1467,-0.1477,-0.1482,-0.1515,-0.152,-0.1525,-0.1536,-0.1546,-0.155,-0.1586,-0.1616,-0.1573,-0.1574,-0.1639,-0.1641,-0.1643,-0.1701,0,0,0,0,0,0,-0.1388,-0.1396,-0.1413,-0.1427,-0.1435,-0.148,-0.1476,-0.1482,-0.1518,-0.1522,-0.1547,-0.1551,-0.1547,-0.1584,-0.1587,-0.1617,-0.1575,-0.1638,-0.164,-0.1642,-0.1697,-0.1704,-0.171,0,0,0,0,0,-0.1386,-0.1405,-0.1413,-0.1421,-0.1454,-0.1482,-0.1487,-0.151,-0.152,-0.1541,-0.1557,-0.1552,-0.1599,-0.1586,-0.159,-0.162,-0.1637,-0.1639,-0.1642,-0.1695,-0.1703,-0.171,0,0,0,0,0,0,-0.1385,-0.141,-0.142,-0.1447,-0.1473,-0.1488,-0.1513,-0.1526,-0.1555,-0.1565,-0.1567,-0.1571,-0.1613,-0.1608,-0.1593,-0.1645,-0.1617,-0.162,-0.1656,-0.1663,-0.167,-0.1667,-0.1576,0,0,0,0,0,-0.1391,-0.1414,-0.1437,-0.1462,-0.1477,-0.15,-0.1518,-0.1535,-0.1557,-0.1572,-0.1589,-0.1605,-0.162,-0.1636,-0.1647,-0.1678,-0.1664,-0.1699,-0.1705,-0.171,-0.171,-0.1716,-0.1723,-0.1651,-0.1651,-0.1651,0,0,-0.1398,-0.1416,-0.143,-0.1464,-0.1485,-0.1513,-0.1513,-0.1551,-0.158,-0.1571,-0.1623,-0.1631,-0.1633,-0.1667,-0.1685,-0.1671,-0.1724,-0.1713,-0.1718,-0.1715,-0.1719,-0.1726,-0.1732,-0.1653,-0.1653,-0.1652,0,0,-0.1414,-0.144,-0.1462,-0.1488,-0.1527,-0.1542,-0.156,-0.1593,-0.1618,-0.166,-0.166,-0.1687,-0.1716,-0.1722,-0.1727,-0.1774,-0.1756,-0.1783,-0.1816,-0.1823,-0.1828,-0.1833,-0.1826,-0.1829,-0.1787,-0.1787,-0.1787,0,-0.1424,-0.1452,-0.1475,-0.1503,-0.153,-0.1559,-0.1591,-0.1618,-0.1661,-0.1682,-0.1687,-0.1732,-0.174,-0.1771,-0.1789,-0.1789,-0.1784,-0.1788,-0.1831,-0.1835,-0.1839,-0.183,-0.1833,-0.179,-0.179,-0.179,-0.1789,0,-0.1447,-0.1483,-0.1502,-0.1546,-0.1578,-0.1613,-0.1651,-0.169,-0.1722,-0.1743,-0.1793,-0.1801,-0.1824,-0.1835,-0.1828,-0.1864,-0.1848,-0.1837,-0.1811,-0.185,-0.1838,-0.184,-0.1795,-0.1794,-0.1793,-0.1792,0,0,-0.1429,-0.1503,-0.1512,-0.1543,-0.1606,-0.1631,-0.1689,-0.1739,-0.1775,-0.1817,-0.1858,-0.1889,-0.1894,-0.1898,-0.1897,-0.1907,-0.1933,-0.189,-0.1889,-0.1881,-0.1942,-0.1832,-0.1823,-0.1933,-0.1934,-0.1934,-0.1922,0,-0.1441,-0.1498,-0.1536,-0.1599,-0.1631,-0.1683,-0.1729,-0.1781,-0.1825,-0.1872,-0.1891,-0.1927,-0.1918,-0.1932,-0.1944,-0.1937,-0.1943,-0.1937,-0.1906,-0.1905,-0.1801,-0.1823,-0.1937,-0.1924,-0.1924,-0.1925,-0.1925,0,-0.1442,-0.1483,-0.1545,-0.1624,-0.1644,-0.1689,-0.1767,-0.1815,-0.1883,-0.1915,-0.1955,-0.197,-0.1999,-0.1981,-0.1989,-0.1988,-0.1971,-0.196,-0.1959,-0.1835,-0.1799,-0.1876,-0.1929,-0.1929,-0.1928,-0.1928,-0.1928,0,-0.1401,-0.1487,-0.1538,-0.1567,-0.1659,-0.1701,-0.1752,-0.1828,-0.1871,-0.1944,-0.1975,-0.201,-0.2029,-0.2023,-0.2008,-0.2004,-0.2004,-0.1991,-0.1873,-0.1865,-0.1942,-0.1937,-0.1989,-0.1989,-0.1989,-0.1989,-0.1989,0,-0.1382,-0.1426,-0.1527,-0.1553,-0.1613,-0.1687,-0.1753,-0.181,-0.1889,-0.1925,-0.1991,-0.2008,-0.2043,-0.2048,-0.2023,-0.195,-0.2015,-0.1875,-0.1854,-0.1967,-0.1965,-0.1944,-0.1939,-0.1989,-0.1989,-0.1989,-0.1989,0,-0.1321,-0.1393,-0.1453,-0.1558,-0.1595,-0.1637,-0.1746,-0.1786,-0.1873,-0.1922,-0.1945,-0.2018,-0.2014,-0.203,-0.2018,-0.1954,-0.1906,-0.1864,-0.1984,-0.1971,-0.1758,-0.1756,-0.1723,-0.1719,-0.1715,-0.1712,-0.171,0,-0.1291,-0.1318,-0.1437,-0.1474,-0.1526,-0.1603,-0.165,-0.1759,-0.1797,-0.19,-0.1906,-0.1953,-0.1976,-0.187,-0.1903,-0.1849,-0.1825,-0.1793,-0.1772,-0.1748,-0.1731,-0.1735,-0.1737,-0.1705,-0.1704,-0.1703,-0.1702,0,-0.1224,-0.1279,-0.1327,-0.1398,-0.1461,-0.1515,-0.1592,-0.1607,-0.1714,-0.1821,-0.1808,-0.1798,-0.1796,-0.1781,-0.1758,-0.1718,-0.181,-0.1757,-0.1763,-0.1743,-0.1725,-0.1713,-0.172,-0.169,-0.1692,-0.1693,-0.1694,0,-0.1171,-0.1185,-0.1251,-0.1298,-0.1372,-0.1386,-0.1447,-0.1484,-0.1532,-0.1657,-0.1646,-0.1694,-0.1771,-0.1712,-0.1687,-0.1646,-0.1615,-0.1557,-0.1574,-0.1587,-0.1549,-0.1506,-0.1381,0,0,0,0,0,-0.1105,-0.1105,-0.1145,-0.1184,-0.1249,-0.1281,-0.1385,-0.1449,-0.1562,-0.1512,-0.1573,-0.156,-0.1529,-0.1565,-0.1489,-0.162,-0.1618,-0.1526,-0.156,-0.1625,-0.1639,-0.1606,0,0,0,0,0,0,-0.1062,-0.1092,-0.11,-0.1066,-0.1069,-0.1117,-0.1171,-0.1256,-0.1242,-0.1368,-0.1361,-0.146,-0.1456,-0.1535,-0.1451,-0.1461,-0.145,-0.1573,-0.1569,-0.1617,-0.163,-0.1641,-0.1612,0,0,0,0,0]},{"header":{"parameterUnit":"m.s-1","parameterCategory":2,"la1":30.2991,"la2":30.254,"lo1":-89.0895,"lo2":-89.0444,"dy":0.0017,"dx":0.0017,"nx":28,"ny":28,"refTime":"2024-02-29T03:00:00:Z","depth":"4","parameterNumber":3,"parameterNumberName":"V-component_of_CURRENTS"},"data":[0,0,0,0,0,0,0,0,0,0,0,0,0,0,0,0,0,0,0,0,0,0,0,0,0,0,0,0,0,0,0,0,0,0,0,0,0,0,0,0,0,0,0,0,0,0,0,0,0,0,0,0,0,0,0,0,0,0,-0.0137,-0.0136,0,-0.0082,-0.0081,-0.008,-0.0045,-0.0045,-0.0045,-0.0045,0.0028,0.003,0.0032,0,0,0,0,0,0,0,0,0,0,0,0,0,-0.0179,-0.0178,-0.0137,-0.0136,-0.0136,-0.0082,-0.0081,-0.008,-0.0045,-0.0045,-0.0045,-0.0045,0.0027,0.003,0.0032,0,0,0,0,0,0,0,0,0,0,0,0,0,-0.0145,-0.0178,-0.0137,-0.0112,-0.011,-0.0082,-0.0081,-0.008,-0.0045,-0.0045,-0.0045,-0.0045,0.0027,0.0029,0.0032,0.0045,0,0,0.0041,0.0042,0,0,0,0,0,0,0,0,-0.0147,-0.0144,-0.0117,-0.0114,-0.0111,-0.0071,-0.0069,-0.0037,-0.0046,-0.0069,-0.0045,-0.0045,-0.0004,0.0001,0.0012,0.0049,0.0052,0.0041,0.0042,0.0044,0.0044,0,0,0,0,0,0,0,-0.015,-0.0146,-0.0114,-0.0116,-0.0113,-0.0093,-0.0088,-0.0063,-0.0037,-0.0067,-0.0065,-0.006,-0.0002,0.0009,0.0014,0.0053,0.0041,0.0043,0.0045,0.0046,0.0106,0.0106,0,0,0,0,0,0,-0.016,-0.0148,-0.0116,-0.0113,-0.013,-0.0093,-0.0087,-0.0083,-0.0038,-0.0031,-0.006,-0.0058,0.0005,0.0011,0.0017,0.0031,0.0044,0.0046,0.0048,0.0106,0.0106,0.0106,0,0,0,0,0,0,-0.0161,-0.0158,-0.0118,-0.013,-0.0123,-0.0092,-0.0088,-0.0082,-0.0073,-0.0033,-0.0026,-0.0057,0.0005,0.0013,0.0038,0.0035,0.0047,0.005,0.0106,0.0106,0.0106,0.0063,0,0,0,0,0,0,-0.0163,-0.0158,-0.0163,-0.013,-0.0123,-0.0108,-0.0088,-0.0081,-0.007,-0.0068,-0.0028,-0.002,0.0006,0.0034,0.0041,0.0039,0.0052,0.0106,0.0106,0.0106,0.0065,0.0062,0.0059,0,0,0,0,0,-0.0164,-0.0171,-0.0163,-0.016,-0.0129,-0.0108,-0.0103,-0.0079,-0.0071,-0.0069,-0.004,-0.0022,0.0038,0.0036,0.0044,0.0043,0.0106,0.0106,0.0106,0.0066,0.0062,0.0059,0,0,0,0,0,0,-0.019,-0.0167,-0.0158,-0.0157,-0.0138,-0.0103,-0.0101,-0.0084,-0.006,-0.0059,-0.002,-0.0011,0.0009,0.0032,0.0029,0.006,0.0074,0.0076,0.0041,0.0038,0.0035,0.0024,0.0054,0,0,0,0,0,-0.0199,-0.02,-0.0171,-0.0172,-0.0164,-0.0134,-0.0124,-0.0108,-0.0081,-0.0071,-0.0042,-0.0012,0.0015,0.003,0.0056,0.0075,0.0099,0.0079,0.0076,0.0073,0.007,0.0105,0.0105,0.0105,0.0105,0.0105,0,0,-0.021,-0.0198,-0.0198,-0.0178,-0.0161,-0.0156,-0.0128,-0.0117,-0.011,-0.0067,-0.0051,-0.0021,0.0017,0.0038,0.0048,0.0057,0.0085,0.0073,0.0071,0.0069,0.0105,0.0105,0.0105,0.0105,0.0105,0.0105,0,0,-0.0233,-0.0221,-0.0229,-0.0216,-0.0196,-0.0176,-0.0176,-0.0145,-0.0129,-0.011,-0.0077,-0.0049,-0.0011,0.002,0.0039,0.0037,0.0068,0.0043,0.0023,0.0057,0.0057,0.0057,0.0083,0.0086,0.0043,0.0043,0.0043,0,-0.0249,-0.0253,-0.0228,-0.023,-0.0225,-0.0189,-0.0196,-0.0173,-0.0137,-0.0125,-0.0113,-0.005,-0.0019,0.0014,0.0013,0.0031,0.0052,0.0031,0.0053,0.0054,0.0055,0.0081,0.0085,0.0041,0.0041,0.0042,0.0042,0,-0.0272,-0.0278,-0.0282,-0.0274,-0.0263,-0.0264,-0.0231,-0.0218,-0.0197,-0.017,-0.0137,-0.0088,-0.0051,-0.0036,-0.0011,0.0014,0.0026,0.0043,0.0059,0.0052,0.0081,0.0085,0.0038,0.0039,0.004,0.004,0,0,-0.0303,-0.0302,-0.0304,-0.0313,-0.0289,-0.0285,-0.0273,-0.025,-0.0245,-0.0202,-0.0187,-0.0132,-0.0103,-0.0078,-0.0039,-0.0007,0.0021,0.0017,0.002,0.0038,0.009,0.0086,0.0092,0.0041,0.0041,0.0042,0.0104,0,-0.0332,-0.0358,-0.0341,-0.0362,-0.0373,-0.0339,-0.0332,-0.0304,-0.0274,-0.025,-0.0188,-0.016,-0.0119,-0.0103,-0.0063,0.0002,0.0032,0.0002,0.0097,0.01,0.0094,0.0097,0.0044,0.0108,0.0109,0.011,0.0111,0,-0.0359,-0.0375,-0.0406,-0.0414,-0.0415,-0.0419,-0.0405,-0.0393,-0.0342,-0.0318,-0.027,-0.0219,-0.0157,-0.0128,-0.0019,-0.0041,0.0016,0.0066,0.0069,0.0084,0.0106,0.0119,0.012,0.0119,0.0119,0.0118,0.0117,0,-0.0396,-0.0418,-0.0449,-0.0451,-0.0451,-0.0459,-0.0455,-0.0418,-0.0411,-0.036,-0.0345,-0.0261,-0.0219,-0.0133,-0.0018,-0.0022,0.0098,0.0108,0.0158,0.0159,0.0162,0.0161,0.0174,0.0174,0.0174,0.0174,0.0173,0,-0.0429,-0.0454,-0.0476,-0.0492,-0.0531,-0.0508,-0.0532,-0.051,-0.0479,-0.0471,-0.0386,-0.0355,-0.0219,-0.0126,-0.0032,0.0083,0.0092,0.0154,0.0176,0.0142,0.0138,0.0166,0.0164,0.0176,0.0175,0.0175,0.0174,0,-0.0457,-0.0471,-0.0513,-0.0538,-0.0552,-0.0578,-0.0593,-0.0603,-0.0563,-0.0548,-0.0533,-0.042,-0.03,-0.0158,-0.001,0.0062,0.0173,0.021,0.0162,0.018,0.0211,0.0206,0.0261,0.0261,0.0262,0.0262,0.0262,0,-0.047,-0.0497,-0.0556,-0.0595,-0.0612,-0.0651,-0.0675,-0.0653,-0.0653,-0.0586,-0.0576,-0.0458,-0.0371,-0.0161,-0.0016,0.0166,0.019,0.0241,0.0225,0.0204,0.022,0.0215,0.021,0.0263,0.0263,0.0263,0.0263,0,-0.0498,-0.0525,-0.0562,-0.0646,-0.0693,-0.0739,-0.0766,-0.0771,-0.0732,-0.0698,-0.061,-0.0486,-0.0347,-0.0173,-0.0022,0.0107,0.0206,0.0245,0.0245,0.023,0.0207,0.0222,0.0216,0.0264,0.0264,0.0264,0.0264,0,-0.0518,-0.0558,-0.0618,-0.0685,-0.0754,-0.0802,-0.0815,-0.0803,-0.079,-0.0701,-0.0676,-0.051,-0.0407,-0.0203,-0.0066,0.0067,0.009,0.0119,0.0126,0.0126,0.0072,0.0022,0.0039,0,0,0,0,0,-0.0531,-0.0582,-0.0654,-0.0728,-0.0796,-0.083,-0.086,-0.0856,-0.0818,-0.0767,-0.0717,-0.0584,-0.0363,-0.0259,-0.013,-0.007,0.0106,0.0084,0.014,0.0271,0.027,0.0229,0,0,0,0,0,0,-0.0545,-0.0615,-0.0654,-0.0744,-0.0799,-0.0865,-0.0886,-0.0865,-0.0824,-0.0767,-0.0648,-0.0565,-0.0348,-0.0437,-0.013,-0.0087,-0.0038,0.0197,0.02,0.0272,0.0271,0.0269,0.0228,0,0,0,0,0]}]]